Location: Be?chatów
(51.3665°N, 19.3745°E)
Time: 22:44:12
(UTC+00:00)

ERS-1 Rocket - Pass Details

Date: 19 May 2025
Orbit: 747 x 752 km, 98.2° (Epoch: 16 June)

Event Time Altitude Azimuth Distance (km) Brightness Sun altitude
Exits shadow 20:04:51 - 191° (SSW) 2,928 5.6 -11.1°
Reaches altitude 10° 20:06:38 10° 199° (SSW) 2,273 5.1 -11.3°
Maximum altitude 20:11:12 35° 264° (W) 1,208 4.3 -11.7°
Drops below altitude 10° 20:15:48 10° 330° (NNW) 2,288 7.0 -12.1°
Sets 20:18:18 0° 340° (NNW) 3,218 8.0 -12.3°
